Location: Arbon
(43.0005°N, 0.7472°E)
Time: 08:30:40
(UTC+00:00)

Vanguard 2 Rocket - Pass Details

Date: 03 December 2020
Orbit: 554 x 3325 km, 32.9° (Epoch: 21 January)

Event Time Altitude Azimuth Distance (km) Brightness Sun altitude
Rises 11:12:39 0° 275° (W) 7,316 11.4 24.3°
Reaches altitude 10° 11:18:02 10° 271° (W) 6,225 11.1 24.5°
Maximum altitude 11:35:27 45° 207° (SSW) 3,305 10.9 24.7°
Drops below altitude 10° 11:47:11 10° 140° (SE) 4,280 11.2 24.8°
Sets 11:50:09 0° 133° (SE) 4,945 11.3 24.8°
